GEFSMW_prec_meanprecacc_096.txt.gz
Total_Precipitation_Accumulation
0.38 0.58 0.70 0.93 1.14 1.27 1.41 1.45 1.52 1.65 1.80 2.01 2.03 2.14 2.36 2.68 2.96 3.15 3.20 3.20 3.12 3.07 2.87 2.73 2.66 2.45 2.22 2.04 1.91 1.69 1.52 1.34 1.15 1.06 0.90 0.67 0.54 0.52 0.48 0.45 0.45 0.44 0.45
0.43 0.67 0.87 1.20 1.43 1.57 1.67 1.77 1.86 2.14 2.54 2.91 3.31 3.62 3.75 3.76 3.95 4.04 4.03 3.88 3.73 3.54 3.27 3.15 2.94 2.64 2.40 2.16 1.91 1.67 1.52 1.35 1.20 1.18 1.13 0.91 0.68 0.50 0.39 0.36 0.33 0.31 0.29
0.58 0.74 0.95 1.27 1.49 1.63 1.81 1.93 2.19 2.80 3.54 3.86 4.15 4.70 4.96 4.69 4.45 4.30 4.19 4.11 4.09 4.00 3.74 3.57 3.24 2.90 2.54 2.23 1.94 1.68 1.51 1.39 1.26 1.13 1.14 1.04 0.85 0.59 0.41 0.31 0.24 0.21 0.21
0.68 0.82 0.97 1.25 1.55 1.85 1.92 2.09 2.58 3.31 3.94 4.38 4.88 5.38 5.57 5.54 5.40 4.93 4.42 3.97 3.64 3.44 3.30 3.15 2.93 2.63 2.29 2.03 1.77 1.50 1.33 1.30 1.19 1.03 0.88 0.78 0.69 0.59 0.46 0.31 0.23 0.19 0.18
0.68 0.83 0.96 1.17 1.34 1.60 1.98 2.23 2.77 3.43 4.09 4.76 5.37 5.72 5.91 5.85 5.44 4.67 3.91 3.48 3.19 2.89 2.65 2.48 2.30 2.07 1.84 1.62 1.47 1.32 1.17 1.07 0.97 0.84 0.74 0.66 0.58 0.49 0.44 0.38 0.27 0.23 0.19
0.56 0.70 0.88 0.98 1.25 1.50 1.80 2.21 2.52 3.12 3.78 4.34 4.83 4.96 5.08 5.00 4.57 4.10 3.60 3.22 2.78 2.30 1.94 1.73 1.56 1.40 1.23 1.13 1.07 0.99 0.89 0.81 0.72 0.62 0.54 0.49 0.48 0.44 0.41 0.36 0.28 0.23 0.19
0.50 0.72 0.96 0.91 1.13 1.44 1.79 2.16 2.55 2.93 3.42 3.90 4.33 4.54 4.63 4.40 3.92 3.50 3.09 2.63 2.19 1.80 1.48 1.27 1.15 1.07 0.98 0.86 0.81 0.74 0.65 0.56 0.51 0.47 0.42 0.36 0.31 0.28 0.27 0.26 0.24 0.19 0.15
0.53 0.67 0.85 0.92 1.14 1.35 1.65 2.00 2.32 2.64 2.83 3.02 3.30 3.49 3.61 3.44 3.10 2.60 2.15 1.85 1.60 1.37 1.18 1.03 0.92 0.75 0.61 0.56 0.54 0.50 0.44 0.37 0.33 0.29 0.28 0.26 0.23 0.21 0.19 0.19 0.20 0.21 0.18
0.56 0.63 0.76 0.88 1.10 1.39 1.64 1.90 2.04 2.19 2.35 2.44 2.46 2.49 2.57 2.44 2.20 1.93 1.63 1.35 1.10 0.91 0.79 0.68 0.60 0.52 0.45 0.40 0.38 0.36 0.33 0.28 0.25 0.22 0.20 0.19 0.19 0.18 0.17 0.17 0.18 0.21 0.21
0.59 0.62 0.69 0.77 0.87 1.00 1.27 1.49 1.60 1.68 1.73 1.77 1.79 1.80 1.79 1.69 1.58 1.42 1.22 0.99 0.81 0.66 0.55 0.47 0.40 0.38 0.37 0.35 0.30 0.26 0.22 0.20 0.18 0.16 0.16 0.16 0.14 0.15 0.16 0.16 0.16 0.16 0.19
0.63 0.61 0.64 0.65 0.70 0.75 0.90 1.10 1.23 1.25 1.32 1.38 1.34 1.27 1.30 1.24 1.15 1.10 1.02 0.87 0.74 0.61 0.50 0.44 0.41 0.36 0.32 0.27 0.25 0.23 0.20 0.19 0.16 0.13 0.13 0.15 0.15 0.15 0.14 0.13 0.13 0.13 0.15
0.68 0.62 0.58 0.53 0.57 0.62 0.67 0.77 0.86 0.86 0.89 0.92 0.92 0.95 0.96 0.96 0.90 0.83 0.73 0.60 0.51 0.45 0.37 0.31 0.29 0.29 0.27 0.23 0.21 0.20 0.17 0.14 0.12 0.10 0.10 0.10 0.10 0.11 0.09 0.09 0.08 0.09 0.12
0.81 0.66 0.53 0.45 0.48 0.55 0.59 0.62 0.64 0.65 0.65 0.63 0.66 0.71 0.70 0.68 0.64 0.58 0.53 0.48 0.41 0.35 0.31 0.26 0.22 0.21 0.20 0.17 0.16 0.15 0.11 0.08 0.07 0.07 0.07 0.07 0.08 0.08 0.07 0.08 0.07 0.09 0.10
0.93 0.73 0.62 0.53 0.53 0.59 0.58 0.58 0.58 0.54 0.52 0.52 0.56 0.60 0.58 0.55 0.51 0.44 0.36 0.32 0.29 0.27 0.25 0.20 0.16 0.12 0.10 0.09 0.09 0.09 0.07 0.06 0.06 0.06 0.06 0.06 0.06 0.06 0.07 0.07 0.09 0.13 0.17
1.00 0.85 0.76 0.72 0.66 0.60 0.55 0.56 0.61 0.59 0.55 0.52 0.51 0.53 0.49 0.45 0.43 0.40 0.34 0.28 0.23 0.20 0.18 0.14 0.10 0.08 0.06 0.05 0.05 0.04 0.03 0.03 0.04 0.04 0.04 0.04 0.05 0.06 0.06 0.08 0.11 0.18 0.23
0.97 0.89 0.85 0.85 0.76 0.66 0.57 0.54 0.59 0.61 0.57 0.52 0.49 0.46 0.44 0.41 0.37 0.33 0.30 0.26 0.20 0.14 0.11 0.10 0.08 0.06 0.04 0.03 0.02 0.02 0.02 0.02 0.03 0.04 0.05 0.04 0.03 0.03 0.04 0.06 0.11 0.18 0.22
1.10 1.07 1.10 1.08 0.96 0.82 0.71 0.64 0.63 0.61 0.60 0.58 0.52 0.48 0.43 0.38 0.33 0.25 0.22 0.21 0.18 0.13 0.10 0.06 0.06 0.05 0.03 0.01 0.01 0.01 0.02 0.04 0.06 0.08 0.09 0.06 0.03 0.05 0.09 0.08 0.08 0.10 0.12
1.36 1.36 1.33 1.21 1.08 0.97 0.86 0.74 0.67 0.63 0.64 0.62 0.54 0.43 0.33 0.26 0.22 0.21 0.20 0.16 0.14 0.13 0.10 0.07 0.05 0.06 0.04 0.01 0.01 0.00 0.03 0.06 0.07 0.08 0.09 0.10 0.09 0.08 0.07 0.06 0.07 0.12 0.15
1.34 1.25 1.17 1.11 1.04 0.92 0.82 0.70 0.63 0.57 0.56 0.52 0.44 0.35 0.28 0.23 0.21 0.21 0.21 0.17 0.14 0.12 0.09 0.07 0.06 0.08 0.07 0.02 0.01 0.01 0.04 0.06 0.05 0.05 0.06 0.07 0.10 0.08 0.08 0.08 0.12 0.16 0.19
1.04 1.02 0.97 0.92 0.85 0.77 0.66 0.57 0.51 0.45 0.41 0.37 0.34 0.28 0.24 0.23 0.22 0.19 0.18 0.14 0.13 0.12 0.08 0.07 0.08 0.09 0.09 0.03 0.01 0.02 0.04 0.07 0.06 0.08 0.09 0.09 0.08 0.07 0.07 0.07 0.15 0.22 0.20
0.86 0.84 0.83 0.80 0.68 0.54 0.46 0.42 0.39 0.35 0.28 0.23 0.24 0.22 0.20 0.19 0.18 0.18 0.16 0.14 0.15 0.15 0.13 0.13 0.13 0.12 0.07 0.04 0.01 0.01 0.03 0.06 0.07 0.10 0.13 0.14 0.08 0.06 0.06 0.08 0.15 0.21 0.20
0.71 0.69 0.62 0.55 0.45 0.38 0.36 0.34 0.32 0.26 0.20 0.19 0.21 0.19 0.17 0.14 0.13 0.15 0.15 0.13 0.14 0.14 0.14 0.15 0.15 0.13 0.11 0.06 0.03 0.01 0.01 0.02 0.07 0.12 0.13 0.14 0.10 0.09 0.11 0.14 0.18 0.20 0.27
0.51 0.52 0.47 0.41 0.37 0.34 0.32 0.29 0.24 0.21 0.20 0.21 0.21 0.18 0.14 0.12 0.12 0.13 0.13 0.12 0.13 0.12 0.11 0.12 0.12 0.12 0.13 0.09 0.02 0.01 0.01 0.02 0.05 0.10 0.12 0.14 0.16 0.18 0.27 0.27 0.23 0.29 0.42
0.37 0.37 0.35 0.32 0.31 0.27 0.24 0.21 0.17 0.17 0.22 0.24 0.21 0.18 0.16 0.15 0.12 0.10 0.08 0.08 0.09 0.09 0.09 0.10 0.10 0.12 0.13 0.09 0.04 0.03 0.04 0.04 0.06 0.09 0.17 0.27 0.32 0.35 0.39 0.42 0.45 0.48 0.49
0.35 0.34 0.31 0.28 0.22 0.20 0.17 0.13 0.13 0.15 0.19 0.19 0.17 0.18 0.17 0.15 0.13 0.10 0.06 0.04 0.05 0.03 0.04 0.06 0.06 0.08 0.09 0.05 0.03 0.04 0.05 0.04 0.06 0.09 0.23 0.41 0.46 0.47 0.46 0.44 0.44 0.47 0.45
0.30 0.30 0.26 0.22 0.18 0.15 0.13 0.11 0.11 0.11 0.16 0.17 0.14 0.13 0.13 0.12 0.10 0.12 0.11 0.04 0.01 0.01 0.01 0.02 0.02 0.04 0.06 0.05 0.03 0.03 0.06 0.06 0.10 0.16 0.35 0.45 0.47 0.47 0.43 0.39 0.36 0.36 0.36

GEFSMW_prec_meanprecacc_102.txt.gz
Total_Precipitation_Accumulation
0.38 0.59 0.70 0.94 1.15 1.29 1.44 1.49 1.58 1.71 1.86 2.06 2.07 2.19 2.41 2.74 3.04 3.26 3.33 3.31 3.24 3.20 3.02 2.90 2.84 2.65 2.43 2.22 2.08 1.89 1.73 1.53 1.34 1.27 1.08 0.82 0.66 0.60 0.55 0.51 0.50 0.49 0.49
0.44 0.68 0.88 1.21 1.44 1.58 1.69 1.80 1.89 2.19 2.59 2.95 3.35 3.66 3.80 3.82 4.03 4.14 4.13 4.00 3.86 3.69 3.45 3.35 3.17 2.89 2.67 2.39 2.11 1.88 1.76 1.59 1.42 1.41 1.36 1.10 0.83 0.60 0.45 0.42 0.38 0.35 0.33
0.59 0.74 0.96 1.28 1.50 1.64 1.83 1.96 2.22 2.83 3.59 3.90 4.19 4.74 4.99 4.73 4.51 4.40 4.32 4.24 4.22 4.14 3.89 3.73 3.42 3.10 2.78 2.47 2.16 1.89 1.74 1.62 1.48 1.35 1.39 1.26 1.02 0.71 0.50 0.37 0.30 0.26 0.26
0.68 0.82 0.98 1.26 1.56 1.86 1.93 2.10 2.59 3.33 3.97 4.41 4.92 5.41 5.60 5.57 5.44 5.00 4.52 4.08 3.75 3.57 3.44 3.30 3.09 2.81 2.49 2.23 2.00 1.74 1.56 1.55 1.41 1.23 1.07 0.97 0.84 0.72 0.57 0.40 0.31 0.26 0.24
0.68 0.83 0.97 1.18 1.35 1.61 1.98 2.24 2.78 3.45 4.11 4.78 5.40 5.76 5.95 5.88 5.48 4.72 3.97 3.55 3.27 2.99 2.77 2.61 2.44 2.24 2.02 1.82 1.67 1.54 1.40 1.30 1.18 1.03 0.92 0.84 0.72 0.60 0.54 0.48 0.37 0.33 0.29
0.56 0.71 0.89 0.99 1.25 1.51 1.80 2.22 2.53 3.15 3.81 4.37 4.86 5.00 5.12 5.04 4.62 4.16 3.65 3.27 2.85 2.38 2.03 1.82 1.66 1.52 1.38 1.31 1.26 1.19 1.12 1.04 0.96 0.87 0.77 0.70 0.67 0.60 0.54 0.48 0.40 0.37 0.34
0.51 0.73 0.97 0.92 1.14 1.45 1.79 2.17 2.56 2.95 3.44 3.93 4.37 4.59 4.67 4.45 3.98 3.56 3.16 2.70 2.27 1.88 1.55 1.34 1.22 1.16 1.10 1.00 0.97 0.92 0.85 0.79 0.76 0.74 0.68 0.62 0.55 0.50 0.48 0.47 0.44 0.37 0.31
0.54 0.68 0.86 0.93 1.14 1.36 1.65 2.00 2.33 2.65 2.85 3.04 3.34 3.54 3.65 3.49 3.15 2.66 2.22 1.93 1.68 1.45 1.25 1.11 1.00 0.86 0.72 0.67 0.67 0.67 0.66 0.63 0.62 0.57 0.56 0.57 0.54 0.48 0.44 0.42 0.43 0.42 0.37
0.57 0.64 0.77 0.88 1.11 1.40 1.65 1.91 2.05 2.20 2.36 2.46 2.50 2.54 2.62 2.49 2.26 2.00 1.72 1.44 1.18 0.99 0.86 0.74 0.66 0.61 0.53 0.49 0.47 0.50 0.52 0.52 0.53 0.52 0.50 0.51 0.52 0.50 0.46 0.42 0.41 0.43 0.43
0.60 0.62 0.69 0.77 0.88 1.02 1.29 1.50 1.62 1.69 1.75 1.79 1.82 1.84 1.83 1.74 1.64 1.49 1.30 1.08 0.91 0.74 0.62 0.51 0.44 0.43 0.44 0.45 0.39 0.37 0.37 0.37 0.37 0.38 0.41 0.42 0.42 0.45 0.45 0.45 0.43 0.40 0.38
0.64 0.62 0.65 0.65 0.71 0.76 0.92 1.11 1.25 1.28 1.35 1.41 1.37 1.30 1.35 1.29 1.21 1.17 1.09 0.95 0.82 0.68 0.58 0.50 0.45 0.41 0.37 0.36 0.35 0.33 0.33 0.33 0.31 0.27 0.29 0.31 0.31 0.33 0.33 0.32 0.31 0.29 0.29
0.69 0.63 0.59 0.54 0.57 0.63 0.69 0.79 0.89 0.89 0.93 0.96 0.96 0.99 1.02 1.04 0.99 0.90 0.81 0.67 0.58 0.52 0.45 0.37 0.35 0.35 0.34 0.30 0.29 0.27 0.24 0.22 0.21 0.20 0.20 0.21 0.22 0.23 0.22 0.21 0.20 0.20 0.21
0.82 0.67 0.54 0.46 0.48 0.56 0.60 0.64 0.68 0.69 0.70 0.68 0.70 0.76 0.79 0.81 0.76 0.66 0.62 0.57 0.48 0.43 0.41 0.34 0.30 0.28 0.27 0.23 0.20 0.20 0.15 0.13 0.12 0.12 0.13 0.14 0.15 0.15 0.14 0.14 0.13 0.15 0.16
0.93 0.74 0.63 0.54 0.54 0.60 0.59 0.60 0.60 0.58 0.58 0.58 0.61 0.67 0.66 0.66 0.64 0.54 0.45 0.41 0.37 0.35 0.35 0.31 0.25 0.20 0.17 0.15 0.14 0.15 0.12 0.10 0.10 0.09 0.10 0.10 0.10 0.10 0.11 0.10 0.11 0.15 0.19
1.00 0.86 0.76 0.73 0.66 0.61 0.57 0.59 0.64 0.63 0.62 0.62 0.59 0.60 0.56 0.54 0.53 0.48 0.42 0.36 0.31 0.28 0.25 0.22 0.19 0.16 0.13 0.11 0.11 0.12 0.10 0.08 0.08 0.08 0.08 0.07 0.08 0.09 0.08 0.09 0.12 0.19 0.24
0.97 0.89 0.85 0.86 0.77 0.68 0.61 0.57 0.63 0.66 0.66 0.64 0.60 0.59 0.55 0.51 0.46 0.40 0.37 0.33 0.26 0.20 0.17 0.16 0.14 0.12 0.09 0.08 0.07 0.07 0.07 0.07 0.06 0.07 0.07 0.06 0.05 0.04 0.04 0.07 0.12 0.18 0.22
1.11 1.08 1.10 1.09 0.98 0.85 0.74 0.70 0.70 0.70 0.70 0.72 0.67 0.64 0.56 0.48 0.42 0.32 0.27 0.27 0.24 0.19 0.13 0.09 0.09 0.09 0.07 0.04 0.03 0.03 0.04 0.06 0.08 0.10 0.10 0.06 0.04 0.06 0.09 0.08 0.08 0.10 0.12
1.37 1.37 1.34 1.22 1.10 0.99 0.91 0.81 0.74 0.75 0.78 0.74 0.70 0.61 0.49 0.37 0.31 0.28 0.25 0.21 0.19 0.18 0.15 0.11 0.08 0.09 0.06 0.03 0.02 0.02 0.04 0.07 0.08 0.09 0.10 0.10 0.10 0.08 0.07 0.06 0.07 0.12 0.15
1.35 1.26 1.19 1.13 1.06 0.96 0.87 0.76 0.69 0.66 0.67 0.62 0.56 0.49 0.42 0.35 0.31 0.29 0.27 0.23 0.18 0.15 0.12 0.10 0.09 0.10 0.09 0.03 0.02 0.02 0.04 0.07 0.05 0.05 0.06 0.08 0.10 0.08 0.08 0.08 0.12 0.16 0.19
1.05 1.03 0.99 0.94 0.87 0.79 0.71 0.63 0.56 0.51 0.49 0.45 0.43 0.37 0.35 0.33 0.32 0.27 0.23 0.20 0.17 0.15 0.11 0.11 0.11 0.11 0.11 0.03 0.01 0.02 0.04 0.07 0.06 0.08 0.09 0.09 0.08 0.07 0.07 0.07 0.15 0.22 0.21
0.87 0.86 0.84 0.82 0.70 0.56 0.50 0.49 0.46 0.42 0.33 0.27 0.31 0.30 0.28 0.28 0.28 0.25 0.22 0.20 0.19 0.18 0.16 0.16 0.16 0.14 0.09 0.04 0.01 0.01 0.03 0.06 0.08 0.10 0.13 0.14 0.08 0.06 0.06 0.08 0.15 0.22 0.20
0.73 0.71 0.65 0.57 0.48 0.42 0.42 0.42 0.40 0.32 0.24 0.23 0.27 0.26 0.23 0.20 0.21 0.22 0.22 0.19 0.19 0.18 0.19 0.18 0.17 0.15 0.12 0.07 0.03 0.01 0.01 0.02 0.07 0.12 0.13 0.14 0.10 0.09 0.11 0.14 0.18 0.20 0.27
0.54 0.54 0.49 0.44 0.42 0.39 0.39 0.37 0.31 0.26 0.24 0.25 0.26 0.23 0.18 0.17 0.18 0.19 0.18 0.17 0.17 0.15 0.15 0.15 0.15 0.13 0.14 0.10 0.02 0.01 0.01 0.02 0.05 0.10 0.12 0.14 0.16 0.18 0.27 0.27 0.23 0.29 0.42
0.40 0.41 0.38 0.36 0.37 0.33 0.30 0.28 0.23 0.22 0.26 0.28 0.25 0.21 0.20 0.19 0.16 0.14 0.11 0.12 0.12 0.11 0.11 0.12 0.12 0.13 0.14 0.09 0.04 0.03 0.04 0.04 0.06 0.09 0.17 0.27 0.32 0.35 0.39 0.42 0.45 0.48 0.49
0.39 0.38 0.35 0.32 0.28 0.25 0.23 0.18 0.18 0.19 0.23 0.22 0.20 0.20 0.20 0.17 0.16 0.12 0.08 0.07 0.06 0.04 0.05 0.07 0.07 0.09 0.09 0.05 0.03 0.04 0.05 0.04 0.06 0.09 0.23 0.41 0.46 0.47 0.46 0.44 0.44 0.47 0.45
0.35 0.34 0.29 0.26 0.23 0.20 0.18 0.15 0.14 0.14 0.19 0.19 0.17 0.15 0.15 0.14 0.12 0.13 0.12 0.05 0.02 0.01 0.01 0.02 0.02 0.04 0.06 0.05 0.03 0.03 0.06 0.06 0.10 0.16 0.35 0.45 0.47 0.47 0.43 0.39 0.36 0.36 0.36

GEFSMW_prec_meanprecacc_108.txt.gz
Total_Precipitation_Accumulation
0.43 0.64 0.78 0.97 1.17 1.31 1.47 1.53 1.62 1.75 1.90 2.11 2.12 2.25 2.48 2.82 3.12 3.33 3.41 3.42 3.37 3.36 3.18 3.06 3.04 2.87 2.64 2.43 2.32 2.17 2.03 1.77 1.55 1.47 1.26 0.99 0.82 0.76 0.68 0.62 0.60 0.59 0.59
0.45 0.73 0.93 1.22 1.46 1.60 1.71 1.82 1.91 2.21 2.63 2.99 3.39 3.72 3.89 3.90 4.10 4.21 4.20 4.07 3.94 3.79 3.56 3.48 3.31 3.05 2.85 2.61 2.37 2.17 2.11 1.91 1.70 1.64 1.57 1.27 0.96 0.71 0.54 0.49 0.45 0.44 0.43
0.59 0.74 0.96 1.28 1.50 1.65 1.84 1.97 2.24 2.85 3.61 3.93 4.21 4.77 5.05 4.79 4.58 4.46 4.37 4.28 4.27 4.20 3.96 3.83 3.54 3.25 2.94 2.66 2.39 2.16 2.02 1.91 1.76 1.61 1.64 1.46 1.16 0.82 0.60 0.45 0.38 0.34 0.36
0.68 0.82 0.98 1.26 1.56 1.86 1.94 2.11 2.61 3.35 4.00 4.44 4.94 5.44 5.64 5.62 5.49 5.06 4.58 4.13 3.80 3.62 3.50 3.37 3.17 2.94 2.63 2.39 2.17 1.94 1.81 1.83 1.68 1.50 1.34 1.24 1.06 0.88 0.70 0.50 0.40 0.35 0.36
0.69 0.83 0.97 1.18 1.35 1.62 1.99 2.25 2.79 3.47 4.13 4.80 5.42 5.79 5.98 5.93 5.54 4.78 4.03 3.61 3.32 3.03 2.80 2.65 2.51 2.33 2.14 1.96 1.83 1.74 1.61 1.54 1.43 1.28 1.15 1.09 0.97 0.79 0.67 0.58 0.46 0.42 0.40
0.56 0.71 0.89 0.99 1.26 1.52 1.81 2.23 2.54 3.16 3.83 4.39 4.89 5.04 5.17 5.09 4.67 4.21 3.70 3.33 2.92 2.44 2.08 1.87 1.71 1.59 1.47 1.43 1.42 1.36 1.31 1.25 1.20 1.11 1.00 0.93 0.91 0.82 0.72 0.62 0.54 0.51 0.48
0.51 0.73 0.97 0.92 1.14 1.46 1.80 2.18 2.57 2.96 3.46 3.95 4.40 4.62 4.72 4.50 4.04 3.62 3.22 2.78 2.35 1.95 1.61 1.41 1.30 1.24 1.17 1.08 1.08 1.05 1.03 1.01 1.01 0.98 0.90 0.84 0.78 0.74 0.70 0.68 0.64 0.56 0.48
0.54 0.68 0.86 0.93 1.15 1.37 1.66 2.01 2.35 2.67 2.87 3.06 3.37 3.58 3.72 3.55 3.21 2.73 2.29 2.00 1.75 1.51 1.32 1.18 1.08 0.94 0.81 0.77 0.77 0.78 0.78 0.79 0.85 0.85 0.83 0.82 0.79 0.74 0.67 0.64 0.64 0.65 0.59
0.57 0.64 0.77 0.89 1.12 1.40 1.66 1.92 2.06 2.21 2.38 2.48 2.53 2.58 2.68 2.56 2.32 2.04 1.76 1.49 1.24 1.05 0.93 0.82 0.74 0.69 0.62 0.58 0.57 0.59 0.62 0.65 0.71 0.75 0.78 0.82 0.84 0.83 0.75 0.68 0.63 0.66 0.67
0.61 0.63 0.70 0.77 0.88 1.02 1.29 1.51 1.63 1.71 1.77 1.82 1.86 1.87 1.88 1.79 1.69 1.54 1.34 1.12 0.95 0.81 0.69 0.58 0.51 0.50 0.50 0.49 0.45 0.45 0.48 0.51 0.56 0.60 0.65 0.70 0.75 0.78 0.78 0.77 0.73 0.66 0.63
0.65 0.62 0.65 0.65 0.71 0.76 0.92 1.12 1.27 1.30 1.37 1.44 1.40 1.34 1.39 1.34 1.26 1.21 1.13 0.98 0.86 0.75 0.65 0.57 0.53 0.49 0.45 0.42 0.41 0.40 0.43 0.48 0.49 0.47 0.50 0.55 0.55 0.58 0.59 0.58 0.56 0.53 0.51
0.69 0.63 0.59 0.54 0.58 0.63 0.69 0.79 0.90 0.91 0.95 0.99 0.99 1.04 1.07 1.07 1.02 0.93 0.84 0.70 0.61 0.57 0.53 0.47 0.46 0.45 0.41 0.39 0.37 0.35 0.33 0.32 0.34 0.34 0.36 0.37 0.37 0.39 0.39 0.39 0.38 0.37 0.35
0.82 0.67 0.54 0.46 0.49 0.56 0.61 0.65 0.69 0.70 0.71 0.70 0.74 0.81 0.84 0.85 0.80 0.70 0.66 0.60 0.52 0.49 0.47 0.42 0.39 0.38 0.36 0.31 0.29 0.28 0.24 0.21 0.21 0.21 0.22 0.24 0.25 0.26 0.25 0.26 0.25 0.26 0.25
0.94 0.74 0.63 0.54 0.55 0.60 0.60 0.61 0.61 0.59 0.60 0.61 0.65 0.71 0.71 0.70 0.68 0.59 0.50 0.46 0.42 0.42 0.43 0.40 0.35 0.28 0.24 0.21 0.21 0.23 0.19 0.17 0.16 0.15 0.15 0.16 0.17 0.18 0.18 0.17 0.18 0.21 0.26
1.00 0.86 0.77 0.73 0.67 0.62 0.58 0.60 0.66 0.65 0.64 0.66 0.65 0.66 0.61 0.59 0.57 0.54 0.48 0.42 0.37 0.35 0.33 0.29 0.27 0.23 0.19 0.17 0.17 0.19 0.16 0.14 0.13 0.12 0.11 0.11 0.13 0.14 0.13 0.14 0.17 0.23 0.28
0.97 0.90 0.86 0.87 0.77 0.69 0.62 0.58 0.65 0.69 0.69 0.69 0.66 0.64 0.61 0.58 0.53 0.47 0.44 0.38 0.32 0.26 0.24 0.22 0.21 0.19 0.16 0.15 0.14 0.13 0.14 0.14 0.14 0.12 0.11 0.11 0.09 0.08 0.08 0.10 0.14 0.21 0.25
1.11 1.09 1.12 1.10 0.99 0.86 0.76 0.72 0.73 0.74 0.74 0.77 0.73 0.71 0.64 0.57 0.52 0.40 0.35 0.33 0.30 0.24 0.19 0.16 0.15 0.17 0.16 0.12 0.09 0.09 0.11 0.13 0.15 0.16 0.14 0.09 0.06 0.08 0.11 0.10 0.09 0.11 0.12
1.38 1.39 1.35 1.23 1.11 1.00 0.92 0.84 0.77 0.80 0.84 0.82 0.77 0.68 0.56 0.47 0.42 0.39 0.33 0.28 0.25 0.23 0.20 0.16 0.14 0.14 0.12 0.08 0.06 0.06 0.09 0.12 0.13 0.13 0.13 0.13 0.11 0.09 0.08 0.07 0.08 0.12 0.15
1.36 1.27 1.19 1.14 1.08 0.98 0.90 0.79 0.72 0.70 0.73 0.69 0.63 0.57 0.50 0.45 0.42 0.40 0.37 0.32 0.26 0.21 0.16 0.14 0.13 0.14 0.12 0.06 0.04 0.05 0.08 0.10 0.09 0.07 0.08 0.09 0.11 0.09 0.08 0.08 0.12 0.16 0.19
1.06 1.04 1.00 0.96 0.91 0.83 0.74 0.66 0.61 0.57 0.55 0.53 0.51 0.45 0.42 0.42 0.42 0.36 0.33 0.29 0.24 0.20 0.14 0.13 0.14 0.13 0.13 0.06 0.03 0.04 0.06 0.09 0.08 0.09 0.10 0.10 0.08 0.07 0.07 0.08 0.15 0.22 0.21
0.88 0.87 0.86 0.86 0.74 0.60 0.54 0.54 0.51 0.48 0.39 0.35 0.39 0.39 0.38 0.37 0.36 0.33 0.31 0.30 0.26 0.24 0.21 0.19 0.19 0.16 0.10 0.06 0.03 0.02 0.05 0.07 0.08 0.10 0.14 0.15 0.08 0.06 0.06 0.09 0.16 0.22 0.20
0.75 0.74 0.68 0.60 0.52 0.45 0.47 0.49 0.46 0.37 0.30 0.30 0.35 0.37 0.35 0.29 0.28 0.30 0.31 0.28 0.26 0.24 0.23 0.22 0.20 0.17 0.13 0.08 0.04 0.02 0.02 0.03 0.08 0.13 0.14 0.14 0.11 0.09 0.11 0.14 0.18 0.20 0.27
0.56 0.58 0.52 0.47 0.45 0.44 0.45 0.44 0.39 0.33 0.31 0.32 0.34 0.33 0.29 0.26 0.26 0.27 0.28 0.26 0.24 0.20 0.19 0.19 0.18 0.16 0.15 0.10 0.02 0.01 0.01 0.02 0.06 0.10 0.12 0.14 0.16 0.18 0.27 0.27 0.23 0.29 0.42
0.44 0.44 0.42 0.40 0.42 0.39 0.38 0.37 0.31 0.30 0.33 0.35 0.33 0.29 0.28 0.27 0.25 0.22 0.19 0.19 0.19 0.16 0.16 0.17 0.16 0.16 0.16 0.10 0.04 0.04 0.04 0.04 0.06 0.09 0.17 0.27 0.32 0.35 0.39 0.42 0.45 0.48 0.49
0.43 0.42 0.40 0.37 0.33 0.32 0.29 0.26 0.25 0.26 0.29 0.29 0.27 0.27 0.26 0.24 0.22 0.17 0.13 0.12 0.11 0.07 0.08 0.10 0.10 0.12 0.10 0.05 0.03 0.04 0.05 0.04 0.06 0.09 0.24 0.41 0.46 0.47 0.46 0.44 0.44 0.47 0.45
0.38 0.38 0.33 0.32 0.28 0.25 0.23 0.21 0.20 0.19 0.24 0.26 0.23 0.20 0.20 0.19 0.15 0.15 0.14 0.08 0.04 0.03 0.02 0.02 0.03 0.04 0.06 0.05 0.03 0.03 0.06 0.06 0.10 0.17 0.36 0.46 0.47 0.47 0.43 0.39 0.36 0.36 0.36

GEFSMW_prec_meanprecacc_114.txt.gz
Total_Precipitation_Accumulation
0.67 0.83 1.01 1.13 1.33 1.51 1.73 1.71 1.73 1.85 2.01 2.22 2.21 2.33 2.57 2.94 3.22 3.40 3.49 3.50 3.44 3.44 3.27 3.14 3.12 2.94 2.72 2.55 2.45 2.34 2.23 1.95 1.70 1.63 1.42 1.14 0.97 0.91 0.85 0.81 0.76 0.71 0.68
0.59 0.87 1.05 1.30 1.51 1.67 1.80 1.91 1.97 2.27 2.68 3.04 3.44 3.78 3.97 3.99 4.20 4.28 4.27 4.13 4.00 3.85 3.63 3.55 3.38 3.12 2.93 2.71 2.47 2.30 2.24 2.03 1.82 1.77 1.72 1.40 1.10 0.84 0.67 0.64 0.60 0.56 0.53
0.64 0.80 1.00 1.31 1.53 1.68 1.87 2.01 2.27 2.89 3.66 3.98 4.27 4.84 5.12 4.88 4.65 4.51 4.42 4.33 4.32 4.25 4.01 3.88 3.60 3.32 3.01 2.73 2.48 2.26 2.13 2.04 1.92 1.76 1.79 1.60 1.29 0.95 0.72 0.56 0.49 0.46 0.48
0.71 0.85 1.00 1.28 1.58 1.88 1.96 2.13 2.63 3.38 4.03 4.47 4.99 5.49 5.69 5.68 5.56 5.10 4.63 4.19 3.86 3.68 3.55 3.41 3.22 2.99 2.69 2.45 2.24 2.04 1.91 1.94 1.84 1.69 1.53 1.41 1.21 1.03 0.85 0.64 0.52 0.48 0.49
0.71 0.85 0.98 1.19 1.36 1.63 2.00 2.27 2.81 3.49 4.15 4.83 5.45 5.83 6.03 5.97 5.58 4.82 4.07 3.64 3.36 3.07 2.83 2.68 2.55 2.38 2.19 2.01 1.89 1.82 1.72 1.64 1.53 1.40 1.31 1.27 1.15 0.95 0.80 0.72 0.61 0.57 0.54
0.58 0.71 0.89 0.99 1.26 1.52 1.82 2.24 2.55 3.17 3.83 4.40 4.90 5.06 5.20 5.13 4.71 4.25 3.74 3.37 2.96 2.47 2.11 1.90 1.75 1.64 1.54 1.52 1.49 1.47 1.42 1.35 1.29 1.21 1.12 1.06 1.04 0.96 0.86 0.75 0.67 0.65 0.61
0.52 0.73 0.97 0.92 1.15 1.46 1.80 2.18 2.58 2.97 3.47 3.96 4.41 4.64 4.75 4.55 4.08 3.67 3.27 2.83 2.39 1.99 1.64 1.43 1.33 1.29 1.25 1.18 1.19 1.19 1.15 1.12 1.11 1.09 1.02 0.97 0.92 0.88 0.86 0.86 0.83 0.73 0.63
0.56 0.68 0.86 0.93 1.15 1.37 1.66 2.02 2.35 2.68 2.88 3.07 3.38 3.60 3.74 3.58 3.25 2.77 2.33 2.04 1.79 1.54 1.34 1.20 1.12 0.99 0.86 0.83 0.86 0.89 0.91 0.91 0.95 0.96 0.96 0.99 0.96 0.90 0.84 0.83 0.87 0.90 0.83
0.61 0.66 0.78 0.89 1.12 1.41 1.66 1.92 2.06 2.22 2.38 2.49 2.54 2.59 2.69 2.58 2.34 2.07 1.79 1.52 1.27 1.08 0.94 0.83 0.76 0.72 0.64 0.62 0.64 0.68 0.71 0.74 0.79 0.84 0.89 0.97 1.04 1.05 0.99 0.93 0.90 0.92 0.95
0.65 0.65 0.72 0.79 0.89 1.02 1.29 1.51 1.63 1.72 1.78 1.83 1.87 1.88 1.89 1.81 1.71 1.56 1.36 1.14 0.99 0.84 0.71 0.60 0.52 0.52 0.52 0.52 0.49 0.52 0.55 0.57 0.61 0.67 0.74 0.83 0.93 1.02 1.06 1.08 1.02 0.93 0.88
0.70 0.65 0.67 0.67 0.71 0.76 0.92 1.12 1.27 1.30 1.38 1.44 1.41 1.35 1.41 1.36 1.28 1.23 1.14 0.99 0.89 0.78 0.67 0.59 0.55 0.52 0.47 0.44 0.45 0.44 0.46 0.52 0.54 0.53 0.58 0.66 0.71 0.79 0.85 0.87 0.84 0.80 0.73
0.73 0.65 0.60 0.55 0.58 0.64 0.69 0.79 0.90 0.91 0.95 0.99 1.00 1.05 1.09 1.10 1.05 0.95 0.85 0.71 0.62 0.58 0.54 0.48 0.48 0.48 0.44 0.42 0.41 0.38 0.37 0.36 0.37 0.38 0.44 0.50 0.51 0.56 0.56 0.57 0.55 0.52 0.48
0.83 0.68 0.55 0.47 0.49 0.57 0.61 0.65 0.69 0.71 0.72 0.71 0.74 0.82 0.85 0.87 0.83 0.72 0.68 0.61 0.52 0.49 0.48 0.44 0.41 0.40 0.39 0.36 0.34 0.33 0.29 0.25 0.25 0.26 0.29 0.34 0.36 0.37 0.36 0.37 0.35 0.36 0.35
0.95 0.75 0.64 0.56 0.56 0.61 0.60 0.61 0.62 0.60 0.61 0.62 0.67 0.72 0.72 0.72 0.69 0.60 0.51 0.48 0.44 0.44 0.45 0.41 0.36 0.30 0.27 0.25 0.27 0.30 0.25 0.21 0.20 0.20 0.21 0.23 0.24 0.24 0.24 0.22 0.23 0.28 0.33
1.01 0.87 0.78 0.74 0.67 0.62 0.58 0.60 0.66 0.66 0.66 0.68 0.67 0.67 0.63 0.61 0.60 0.56 0.50 0.44 0.39 0.36 0.35 0.31 0.29 0.25 0.22 0.22 0.23 0.25 0.24 0.21 0.18 0.16 0.15 0.16 0.17 0.19 0.18 0.18 0.21 0.27 0.33
0.98 0.90 0.87 0.87 0.78 0.69 0.62 0.59 0.66 0.69 0.71 0.71 0.68 0.67 0.64 0.60 0.56 0.51 0.48 0.41 0.35 0.29 0.26 0.24 0.23 0.22 0.20 0.21 0.20 0.19 0.23 0.22 0.19 0.16 0.15 0.14 0.12 0.11 0.11 0.13 0.18 0.24 0.28
1.12 1.09 1.12 1.11 0.99 0.86 0.76 0.73 0.74 0.75 0.76 0.79 0.76 0.74 0.66 0.60 0.55 0.45 0.39 0.37 0.34 0.27 0.23 0.20 0.20 0.22 0.21 0.18 0.15 0.15 0.18 0.21 0.21 0.19 0.17 0.13 0.09 0.11 0.13 0.12 0.12 0.13 0.15
1.39 1.39 1.35 1.23 1.11 1.01 0.93 0.85 0.78 0.82 0.86 0.83 0.78 0.70 0.59 0.51 0.47 0.43 0.37 0.32 0.28 0.26 0.24 0.21 0.19 0.20 0.19 0.16 0.12 0.12 0.14 0.18 0.19 0.18 0.18 0.17 0.16 0.13 0.11 0.10 0.10 0.14 0.17
1.37 1.27 1.19 1.14 1.08 0.99 0.91 0.80 0.74 0.72 0.74 0.70 0.65 0.59 0.54 0.50 0.47 0.44 0.41 0.35 0.30 0.25 0.20 0.19 0.19 0.20 0.18 0.12 0.10 0.09 0.11 0.15 0.13 0.12 0.13 0.13 0.14 0.12 0.11 0.10 0.14 0.18 0.21
1.06 1.04 1.00 0.96 0.91 0.84 0.75 0.67 0.62 0.58 0.57 0.55 0.53 0.47 0.45 0.46 0.46 0.40 0.37 0.33 0.29 0.25 0.18 0.17 0.19 0.19 0.18 0.10 0.07 0.06 0.08 0.11 0.10 0.11 0.11 0.11 0.09 0.08 0.08 0.09 0.16 0.23 0.21
0.89 0.87 0.87 0.86 0.74 0.60 0.55 0.54 0.52 0.48 0.41 0.37 0.41 0.42 0.41 0.41 0.40 0.36 0.35 0.34 0.30 0.28 0.24 0.22 0.22 0.19 0.13 0.08 0.05 0.04 0.06 0.08 0.09 0.11 0.14 0.15 0.08 0.06 0.06 0.09 0.16 0.22 0.20
0.76 0.75 0.68 0.61 0.52 0.47 0.48 0.49 0.47 0.38 0.31 0.32 0.38 0.41 0.40 0.34 0.32 0.33 0.35 0.33 0.30 0.27 0.26 0.24 0.21 0.18 0.13 0.08 0.04 0.02 0.02 0.03 0.08 0.13 0.14 0.14 0.11 0.09 0.11 0.14 0.18 0.20 0.27
0.57 0.59 0.53 0.48 0.46 0.46 0.47 0.45 0.40 0.35 0.33 0.35 0.38 0.37 0.34 0.32 0.31 0.31 0.32 0.32 0.28 0.23 0.21 0.20 0.19 0.16 0.15 0.10 0.03 0.02 0.01 0.02 0.06 0.10 0.12 0.14 0.16 0.18 0.27 0.27 0.23 0.29 0.42
0.44 0.46 0.43 0.41 0.43 0.42 0.40 0.38 0.33 0.32 0.36 0.38 0.36 0.34 0.33 0.31 0.29 0.26 0.23 0.24 0.22 0.19 0.17 0.17 0.17 0.16 0.16 0.10 0.04 0.04 0.04 0.04 0.06 0.09 0.17 0.27 0.32 0.35 0.39 0.42 0.45 0.48 0.49
0.45 0.44 0.41 0.39 0.34 0.34 0.31 0.28 0.27 0.28 0.32 0.32 0.30 0.30 0.30 0.27 0.26 0.20 0.17 0.16 0.13 0.08 0.09 0.10 0.10 0.12 0.10 0.05 0.03 0.04 0.05 0.04 0.06 0.09 0.24 0.41 0.46 0.47 0.46 0.44 0.44 0.47 0.45
0.40 0.40 0.35 0.33 0.29 0.26 0.25 0.24 0.22 0.21 0.27 0.29 0.26 0.23 0.22 0.21 0.18 0.18 0.17 0.11 0.06 0.04 0.03 0.02 0.03 0.04 0.06 0.05 0.03 0.03 0.06 0.06 0.10 0.17 0.36 0.46 0.47 0.47 0.43 0.39 0.36 0.36 0.36